Location: Bruderhein
(53.8035°N, 112.9265°W)
Time: 10:15:50
(UTC+00:00)

Meteor 1-19 Rocket - Pass Details

Date: 07 December 2023
Orbit: 806 x 928 km, 81.2° (Epoch: 04 March)

Event Time Altitude Azimuth Distance (km) Brightness Sun altitude
Rises 14:46:58 0° 343° (NNW) 3,592 7.0 -6.6°
Reaches altitude 10° 14:49:34 10° 337° (NNW) 2,641 6.3 -6.3°
Maximum altitude 14:55:16 45° 267° (W) 1,235 4.8 -5.6°
Drops below altitude 10° 15:00:50 10° 197° (SSW) 2,580 6.9 -4.9°
Sets 15:03:21 0° 191° (S) 3,500 7.7 -4.6°
